Back to catalog

FORMOSAT7-4/COSMIC2-4

AliveWeatherVLEO
NORAD 44350·PAYLOAD·🇹🇼 Taiwan

Launched Jun 25, 2019 from Cape Canaveral Space Force Station

Loading…

Next Passes (next 24 hours)

TLE

FreshSource: Space-Track

Epoch: Sep 14, 2026, 04:59 UTC

1 44350U 19036M   26257.20772455  .00002080  00000-0  15140-3 0  9993
2 44350  23.9970 214.2007 0001352 142.9082 217.1513 14.96816063397420

Track FORMOSAT7-4/COSMIC2-4 in real time with AllMySat

Download on the App Store